• Join FlightAware (Why Join?)
  • Login
  • US Flag 
07:59PM EST


 

Airport Tracker/Info


-or-


 

Live Flight TrackerFlight Track Log ✈ N27XP ✈ 2014年 01月 05日 ✈ KSOP - KHEF

Flight Track Log - Related Links

Times and Time Zones

All times are in EST time to prevent confusion due to time zone crossing. See the N27XP flight status page for this flight to view local times or setup timezone preferences in your user account.

Time Position Orientation Groundspeed Altitude Reporting Facility
EST Latitude Longitude Course Direction KTS MPH feet Rate Location/Type
11:07AM 35.3308 -79.3014 25° Northeast 265 305 5,100  Level Washington Center
11:08AM 35.3950 -79.2433 36° Northeast 284 327 7,900 2,824 Climbing Washington Center
11:09AM 35.4725 -79.1678 38° Northeast 309 356 10,700 2,281 Climbing Washington Center
11:10AM 35.5414 -79.0994 39° Northeast 334 384 12,500 1,785 Climbing Washington Center
11:11AM 35.6044 -79.0103 49° Northeast 334 384 14,300 1,780 Climbing Washington Center
11:12AM 35.7244 -79.1380 25° Northeast  Level Estimated
11:12AM 35.6861 -78.9242 41° Northeast 356 410 16,000  Level Washington Center
11:13AM 35.7858 -78.8694 24° Northeast 373 429 17,600 1,587 Climbing Washington Center
11:14AM 35.8894 -78.8097 25° Northeast 390 449 19,200 1,686 Climbing Washington Center
11:15AM 35.9956 -78.7472 25° Northeast 406 467 21,000 1,377 Climbing Washington Center
11:16AM 36.1014 -78.6872 25° Northeast 406 467 22,000 504 Climbing Washington Center
11:17AM 36.2158 -78.6194 26° Northeast 422 486 22,000  Level Washington Center
11:18AM 36.3367 -78.5469 26° Northeast 450 518 22,000  Level Washington Center
11:19AM 36.4572 -78.4767 25° Northeast 468 539 22,000  Level Washington Center
11:20AM 36.5758 -78.4058 26° Northeast 468 539 22,000  Level Washington Center
11:21AM 36.6900 -78.3350 26° Northeast 468 539 22,000  Level Washington Center
11:22AM 36.8106 -78.2614 26° Northeast 468 539 22,000  Level Washington Center
11:23AM 36.9269 -78.1928 25° Northeast 468 539 22,000  Level Washington Center
11:24AM 37.0431 -78.1236 25° Northeast 468 539 22,000  Level Washington Center
11:25AM 37.1614 -78.0519 26° Northeast 468 539 22,000  Level Washington Center
11:26AM 37.2778 -77.9800 26° Northeast 468 539 22,000  Level Washington Center
11:27AM 37.3958 -77.9081 26° Northeast 468 539 22,000 -446 Level Washington Center
11:28AM 37.5097 -77.8408 25° Northeast 463 533 21,100 -1,664 Descending Washington Center
11:29AM 37.6278 -77.7708 25° Northeast 463 533 18,700 -2,100 Descending Washington Center
11:30AM 37.7417 -77.7031 25° Northeast 451 519 16,900 -1,835 Descending Washington Center
11:31AM 37.8492 -77.6403 25° Northeast 439 505 15,000 -1,785 Descending Washington Center
11:32AM 37.9544 -77.5775 25° Northeast 422 486 13,300 -1,613 Descending Washington Center
11:33AM 38.0661 -77.5144 24° Northeast 408 470 11,800 -1,373 Descending Washington Center
11:34AM 38.1608 -77.4589 25° Northeast 387 445 10,600 -900 Descending Washington Center
11:35AM 38.2514 -77.4056 25° Northeast 369 425 10,000 -298 Descending Washington Center
11:36AM 38.3311 -77.3597 24° Northeast 336 387 10,000 -344 Level Washington Center
11:37AM 38.3953 -77.3958 336° Northwest 247 284 9,300 -1,311 Descending Washington Center
11:38AM 38.4147 -77.4917 285° West 215 247 7,400 -1,815 Descending Washington Center
11:39AM 38.4617 -77.5564 313° West 238 274 5,700 -1,686 Descending Washington Center
11:40AM 38.5339 -77.6008 334° Northwest 260 299 4,000 -900 Descending Washington Center
11:41AM 38.6042 -77.6425 335° Northwest 268 308 3,900 -446 Descending Washington Center
11:42AM 38.6658 -77.6894 329° Northwest 263 303 3,100 -706 Descending Washington Center
11:43AM 38.7275 -77.7419 326° Northwest 263 303 2,500 -172 Descending Washington Center
11:45AM 38.8500 -77.7833 345° North 219 252 2,600 34 Climbing Potomac TRACON
11:46AM 38.8833 -77.7167 57° Northeast 198 228 2,600 -53 Level Potomac TRACON
11:47AM 38.8833 -77.6667 90° East 200 230 2,500 -53 Descending Potomac TRACON
11:48AM 38.8667 -77.6167 113° Southeast 175 201 2,500  Level Potomac TRACON
11:49AM 38.8333 -77.5833 142° Southeast 131 151 2,500 -316 Level Potomac TRACON
11:50AM 38.8000 -77.5667 159° South 115 132 1,900 -650 Descending Potomac TRACON
11:51AM 38.7667 -77.5500 159° South 114 131 1,200 -650 Descending Potomac TRACON
11:52AM 38.7500 -77.5333 142° Southeast 128 147 600 -600 Descending Potomac TRACON
11:54AM 38.7210 -77.5151 330° Northwest  Level Estimated
12:01PM 38.7210 -77.5151 330° Northwest  Level Estimated